TimeCST,TemperatureF,Dew PointF,Humidity,Sea Level PressureIn,VisibilityMPH,Wind Direction,Wind SpeedMPH,Gust SpeedMPH,PrecipitationIn,Events,Conditions,WindDirDegrees,DateUTC
12:30 AM,26.6,19.4,74,30.06,10.0,NNW,8.1,18.4,N/A,,Overcast,340,2013-03-01 06:30:00
12:42 AM,26.6,19.4,74,30.06,10.0,NNW,13.8,18.4,N/A,,Overcast,330,2013-03-01 06:42:00
12:52 AM,26.1,19.9,78,30.09,10.0,North,11.5,-,N/A,,Overcast,350,2013-03-01 06:52:00
1:52 AM,26.1,19.9,78,30.08,10.0,NNW,11.5,-,N/A,,Overcast,330,2013-03-01 07:52:00
2:52 AM,26.1,21.0,81,30.07,10.0,NNW,9.2,-,N/A,,Overcast,340,2013-03-01 08:52:00
3:52 AM,26.1,21.0,81,30.08,10.0,NNW,11.5,18.4,0.00,,Overcast,340,2013-03-01 09:52:00
5:52 AM,26.1,21.0,81,30.12,9.0,NNW,12.7,-,0.00,,Overcast,340,2013-03-01 11:52:00
6:52 AM,26.1,21.0,81,30.13,6.0,North,11.5,-,0.00,Snow,Light Snow,350,2013-03-01 12:52:00
7:52 AM,25.0,21.0,85,30.15,3.0,NNW,16.1,23.0,0.00,Snow,Light Snow,340,2013-03-01 13:52:00
8:02 AM,24.8,21.2,86,30.12,2.0,NNW,11.5,-,0.00,Snow,Light Snow,340,2013-03-01 14:02:00
8:52 AM,25.0,21.0,85,30.16,2.5,NNW,11.5,18.4,0.00,Snow,Light Snow,340,2013-03-01 14:52:00
9:08 AM,24.8,21.2,86,30.13,3.0,NNW,12.7,-,0.00,Snow,Light Snow,340,2013-03-01 15:08:00
9:09 AM,24.8,21.2,86,30.13,3.0,NNW,13.8,-,0.00,Snow,Light Snow,340,2013-03-01 15:09:00
9:22 AM,24.8,21.2,86,30.13,3.0,NNW,10.4,18.4,0.00,Snow,Light Snow,330,2013-03-01 15:22:00
9:39 AM,26.6,21.2,80,30.14,2.0,NNW,10.4,-,0.00,Snow,Light Snow,340,2013-03-01 15:39:00
9:52 AM,26.1,21.9,84,30.17,2.5,NNW,10.4,-,0.00,Snow,Light Snow,330,2013-03-01 15:52:00
10:27 AM,26.6,21.2,80,30.14,3.0,NNW,10.4,-,0.00,Snow,Light Snow,340,2013-03-01 16:27:00
10:52 AM,26.1,21.9,84,30.17,6.0,North,10.4,-,0.00,,Overcast,350,2013-03-01 16:52:00
11:52 AM,27.0,21.9,81,30.17,8.0,NNW,10.4,-,0.00,,Overcast,340,2013-03-01 17:52:00
12:52 PM,28.9,24.1,82,30.17,10.0,North,17.3,25.3,0.00,,Overcast,10,2013-03-01 18:52:00
1:06 PM,28.4,24.8,86,30.14,10.0,NNE,13.8,23.0,N/A,,Overcast,20,2013-03-01 19:06:00
1:52 PM,27.0,21.9,81,30.17,8.0,North,15.0,21.9,0.00,,Overcast,350,2013-03-01 19:52:00
2:52 PM,26.1,21.9,84,30.17,7.0,North,13.8,18.4,0.00,,Overcast,360,2013-03-01 20:52:00
3:52 PM,26.1,21.9,84,30.18,9.0,North,13.8,25.3,0.00,,Overcast,360,2013-03-01 21:52:00
4:52 PM,26.1,21.0,81,30.19,10.0,North,16.1,20.7,0.00,,Overcast,350,2013-03-01 22:52:00
6:21 PM,24.8,19.4,80,30.18,10.0,NNW,12.7,-,N/A,,Overcast,340,2013-03-02 00:21:00
6:52 PM,25.0,19.0,78,30.22,10.0,NNW,10.4,-,N/A,,Overcast,340,2013-03-02 00:52:00
7:52 PM,25.0,19.9,81,30.22,10.0,NNW,12.7,-,N/A,,Overcast,340,2013-03-02 01:52:00
9:52 PM,26.1,19.0,75,30.21,10.0,NNW,12.7,-,N/A,,Overcast,340,2013-03-02 03:52:00
10:05 PM,26.6,19.4,74,30.18,10.0,NNW,12.7,-,N/A,,Overcast,340,2013-03-02 04:05:00
10:52 PM,26.1,19.0,75,30.19,10.0,North,10.4,-,N/A,,Overcast,350,2013-03-02 04:52:00
11:52 PM,25.0,19.0,78,30.19,10.0,North,13.8,-,N/A,,Overcast,350,2013-03-02 05:52:00